Airfield :
LOGIN :

Register | Disclaimer

   EN    FR    IT 

 










Legend :    VFR   Marginal VFR   IFR   Intensive IFR   Very Intensive IFR
Visi :
Ceiling :
>= 8 km
>= 3000ft
5 to 8 km
1000 to 3000 ft
1500m to 5 km
500 to 1000 ft
800 to 1500m
200 to 500 ft
< 800m
< 200 ft
Symbols :   Thunderstorms  Fog  Heavy snow  Heavy precipitations  Wind > 20 kt
SIGMETs :     Misc.  Thunderstorms  Icing  Turbulence  Mountain Waves  Volcanic Ashes






- Airport Elevation : 47 ft
- IATA code : BDS


LIBR - Casale Arpt. Brindisi

CURRENT METAR :
  • 041450Z 12008KT CAVOK 33/18 Q1013

EXPIRED METARs :
  • 041420Z 12008KT 090V160 CAVOK 33/20 Q1012
  • 041350Z 12009KT CAVOK 31/22 Q1013
  • 041320Z 11009KT CAVOK 30/22 Q1013
  • 041250Z 10010KT CAVOK 30/23 Q1013
  • 041220Z 10010KT CAVOK 30/23 Q1014

TAF TAF LIBR
Valid from the 04 at 12:00 until the 05 at 12:00 UTC


041100Z 0412/0512 08010KT CAVOK
BECMG 0414/0416 19012KT
BECMG 0508/0510 26016G26KT



MET'MAP, your aeronautical weather chart ! - Copyright ORBIFLY December 2007 - Disclaimer

ORBIFLY MET'MAP TEAM :

Programming & Development : Alexandra Zaïnal
Concept & original design : Baudouin d'Aumeries
Assistance for programming : Marc-Olivier Méhu
Technical & hardware support : Manuel Goepfert

Contact : metmap@orbifly.com




SOURCES & CREDITS :

   NOAA